Regional Weather Roundup
Issued by NWS

Home | Current Version | Previous Version | Graphics & Text | Print | Product List | Glossary On
Versions: 1 2 3 4 5 6 7 8 9 10 11 12 13 14 15 16 17 18 19 20 21 22 23 24 25 26 27 28 29 30 31 32 33 34 35 36 37 38 39 40 41 42 43 44 45 46 47 48 49 50
000
ASUS43 KLMK 031802
RWRKY
KENTUCKY REGIONAL WEATHER ROUNDUP
NATIONAL WEATHER SERVICE LOUISVILLE KY
200 PM EDT FRI JUL 03 2015

NOTE "FAIR" INDICATES FEW OR NO CLOUDS BELOW 12,000 FEET
WITH NO SIGNIFICANT WEATHER AND/OR OBSTRUCTIONS TO VISIBILITY.

KYZ001>023-026-027-061>063-070>075-031900-
WESTERN AND SOUTH CENTRAL KENTUCKY

CITY           SKY/WX    TMP DP  RH WIND       PRES   REMARKS
PADUCAH        PTSUNNY   81  69  67 W9        29.89S
HENDERSON      MOSUNNY   82  70  65 NW6       29.85F
OWENSBORO      PTSUNNY   81  72  74 W6        29.86F HAZE
HOPKINSVILLE   PTSUNNY   80  71  74 SW13      29.90R
BOWLING GREEN  PTSUNNY   78  72  81 SW13      29.88F
GLASGOW        NOT AVBL
$$

KYZ024-025-028>034-038-045-046-053-031900-
NORTH CENTRAL KENTUCKY

CITY           SKY/WX    TMP DP  RH WIND       PRES   REMARKS
LOUISVILLE/SDF LGT RAIN  78  70  76 N6        29.84F
LOUISVILLE/LOU CLOUDY    78  70  76 N6        29.85F
FORT KNOX      LGT RAIN  72  70  94 W5        29.85F FOG
$$

KYZ035>037-039>044-047>052-055>060-089>105-031900-
NORTHEAST KENTUCKY

CITY           SKY/WX    TMP DP  RH WIND       PRES   REMARKS
LEXINGTON      LGT RAIN  76  70  82 CALM      29.87F
COVINGTON      CLOUDY    76  66  71 NE7       29.89F
FRANKFORT      PTSUNNY   77  68  73 E3        29.85F
$$

KYZ054-064>069-076>088-106>120-031900-
SOUTHEAST KENTUCKY

CITY           SKY/WX    TMP DP  RH WIND       PRES   REMARKS
JACKSON        CLOUDY    69  67  93 VRB7      29.90F
LONDON         CLOUDY    73  67  81 E6        29.90F
SOMERSET       NOT AVBL
MIDDLESBORO    CLOUDY    74  70  86 CALM      29.92F
MONTICELLO     CLOUDY    78  72  82 SW10      29.92F
$$




USA.gov is the U.S. government's official web portal to all federal, state and local government web resources and services.